星链-4443 (STARLINK-4443 )

导读

STARLINK-4443是美国SpaceX公司星链计划中的卫星,于2022年8月12日发射。星链旨在构建全球卫星互联网星座,该卫星加入星座后,进一步提升了覆盖范围与网络容量,为全球偏远地区等提供互联网接入服务,推动全球互联网络覆盖的完善,助力太空互联网基础设施建设。

基本信息
目录编号:
53508
目录名称:
STARLINK-4443
国际标识:
2022-099AV
轨道中心:
EARTH
卫星名称:
星链-4443
卫星全名:
星链-4443 (STARLINK-4443 )
卫星状态:
在轨 (已飞行1405 天)
发射日期:
2022-08-12 UTC
国别 :
美国 (US)
星等 :
--
轨道信息
数据来源 国际轨道数据 AOE轨道数据
星历时间 2026-06-17T04:12:22+0800
13小时前
查看轨道信息
2026-06-15T05:00:00+0800
2天前
查看轨道信息
半长轴 6927.626km 6927.635km
偏心率 0.0001301 0.0002605
轨道倾角 97.353° 97.379°
近地点辐角 110.531° 107.286°
升交点赤经 287.992° 286.135°
平近点角 249.605° 38.174°
近地点 548.587km 547.693km
远地点 550.391km 551.303km
周期 95.639分钟 95.639分钟
每日圈数 15.056575 15.056543
详细信息
固有亮度:
5
最大亮度:
2.5
卫星平台:
Starlink v1.5
覆盖范围:
全球
运营商:
太空探索技术公司
运营商所在国:
美国
制造商(研发单位):
太空探索技术公司
制造商所在国:
美国
使用方式:
暂无
卫星简介
星链(Starlink)计划是由太空探索技术公司(SpaceX)提出的一个巨型低轨卫星互联网星座项目,计划在2019年至2024年间在太空搭建由约1.2万颗卫星组成的“星链”网络,其中1584颗将部署在地球上空550千米处的近地轨道,并从2020年开始工作。该卫星仍在工作。
2D轨道图
3D轨道图
轨道高度分析图
轨道倾角分析图
轨道综合分析图
查看轨道综合分析图